EHI
0 0 0 0 0 0 0 0 1 0 0 0 1 4 5 6 5 4 3 2 3 4 3 3 5 9 12 12 8 5 4 4 4 4 4 2 0 0 0 0 0 0 1 1
0 0 0 0 0 0 0 1 1 1 0 0 1 3 3 4 4 4 3 4 4 4 3 4 7 11 15 16 13 9 6 5 5 5 4 2 1 0 0 0 0 1 3 3
0 0 0 0 0 0 0 1 2 2 1 1 1 1 1 1 2 4 5 6 6 5 3 5 10 15 19 21 18 13 9 7 6 6 4 3 1 1 1 1 1 2 4 5
0 0 0 0 0 0 0 1 2 3 2 1 1 0 0 0 2 6 9 9 9 6 5 8 13 18 23 24 21 15 11 9 8 7 6 5 4 3 3 2 1 3 4 4
0 0 0 0 0 0 0 1 2 2 1 1 1 0 0 0 2 8 12 12 11 8 7 10 14 19 24 26 23 18 13 11 11 11 10 9 7 6 4 2 2 3 3 3
0 0 0 0 0 0 0 0 1 1 0 0 1 1 0 0 2 6 11 14 13 10 9 11 15 20 25 28 28 24 18 14 13 12 11 8 6 6 5 5 4 4 4 3
0 0 0 0 0 0 0 0 0 0 0 0 0 0 0 0 1 4 9 13 13 10 10 12 17 22 26 29 31 29 24 18 14 12 8 5 4 5 6 6 6 6 5 4
0 0 0 0 0 0 0 0 0 0 0 0 0 0 0 0 1 4 8 10 10 10 9 11 16 22 25 28 30 31 28 22 17 14 10 6 4 4 6 6 6 6 5 5
0 0 0 0 0 0 0 0 0 0 0 0 0 0 0 0 1 4 8 8 7 8 8 10 14 17 20 25 28 30 28 23 20 18 15 11 8 7 7 7 6 6 6 6
0 0 0 0 0 0 0 0 0 0 0 0 0 0 0 0 1 4 7 8 8 8 8 10 11 13 16 21 24 26 27 26 23 21 19 16 13 12 10 8 7 7 7 7
0 0 0 0 0 0 0 0 0 0 0 0 0 0 0 0 1 4 7 9 10 10 8 8 9 10 13 18 21 24 28 30 28 25 22 20 18 16 13 10 9 8 8 7
0 0 0 0 0 0 0 0 0 0 0 0 0 0 0 1 3 5 8 10 11 11 9 8 9 10 12 16 19 24 28 32 32 30 27 24 22 19 15 11 10 10 8 6
0 0 0 0 0 0 0 0 0 0 0 0 0 0 1 3 6 7 9 10 11 12 13 12 11 11 11 13 16 20 25 30 32 32 29 27 25 21 18 14 12 12 11 8
0 0 0 0 0 0 0 0 0 0 0 0 0 0 1 2 4 7 9 10 13 15 17 17 15 12 11 9 10 14 21 26 31 32 31 28 26 24 21 17 15 15 14 11
0 0 0 0 0 0 0 0 0 0 0 0 0 0 0 1 3 6 9 13 16 17 18 19 18 16 14 10 9 12 18 23 28 33 33 30 27 24 21 18 17 17 16 14
0 0 0 0 0 0 0 0 0 0 0 0 0 0 2 3 6 9 13 16 18 17 17 19 20 19 17 14 12 14 19 21 25 31 35 33 28 24 20 17 17 19 18 16
0 0 0 0 0 0 0 0 0 0 1 1 1 2 5 9 11 14 17 20 19 17 16 17 18 18 18 16 15 17 20 23 25 29 34 34 30 25 21 19 18 19 19 19
0 0 0 0 0 0 0 0 0 0 1 3 3 4 8 12 14 16 20 22 22 18 16 16 16 17 17 16 15 18 22 25 26 28 31 32 32 28 24 21 19 20 22 24
0 0 0 0 0 0 0 0 0 0 1 3 3 5 9 13 16 17 20 22 23 22 20 18 19 20 19 17 17 20 22 23 24 25 27 29 30 29 27 23 21 23 25 27
0 0 0 0 0 0 0 0 0 0 1 2 2 3 8 13 17 19 21 23 23 23 24 23 23 24 23 21 22 22 21 19 20 22 25 27 28 29 29 27 25 26 27 27
0 0 0 0 0 0 0 1 0 0 0 1 1 2 6 11 16 20 22 22 21 21 23 24 24 25 24 23 23 22 18 17 18 21 25 29 31 31 32 31 31 31 30 29
0 0 0 0 0 0 0 0 0 0 0 1 1 2 6 10 16 21 21 18 16 17 18 19 21 22 21 21 21 19 16 16 17 19 23 28 33 34 34 34 34 33 31 31
0 0 1 1 0 0 0 0 0 1 1 2 2 4 7 12 16 17 16 13 11 12 12 13 15 17 16 17 17 15 14 14 15 16 18 21 26 30 32 33 32 31 29 29
1 2 3 2 1 1 1 0 1 2 2 3 4 6 11 14 14 12 10 8 8 9 9 10 10 11 13 13 13 13 13 12 13 14 14 15 19 25 28 29 27 25 25 25
2 3 5 5 4 3 3 2 3 4 4 5 7 10 13 15 13 11 9 8 8 8 9 9 8 9 10 10 11 12 12 11 11 12 13 13 16 21 25 24 20 17 17 18
2 3 6 7 7 6 4 4 6 5 4 6 10 13 15 15 13 11 10 9 9 9 9 8 8 8 8 8 10 11 11 10 10 11 13 14 15 19 22 19 14 11 10 10
Wind_Speed
2 3 2 6 6 5 3 2 1 3 3 3 5 6 9 9 9 9 9 9 10 10 9 9 10 10 9 7 7 6 5 4 3 2 2 1 1 1 1 1 2 2 2 2
4 4 8 5 3 3 1 1 1 1 1 4 4 4 7 9 11 12 12 11 11 9 9 9 9 10 9 8 7 6 6 5 4 3 2 2 2 1 1 1 1 2 2 2
5 8 5 2 2 1 1 3 3 2 1 2 4 1 3 5 6 8 11 11 11 13 13 11 11 10 10 9 9 8 6 6 5 4 2 1 1 1 1 1 0 1 2 2
5 6 3 3 4 4 4 6 6 5 4 1 3 1 5 4 5 8 9 10 12 12 11 11 11 11 11 10 9 7 7 5 5 4 4 4 3 2 2 2 1 1 1 2
5 4 4 5 7 5 5 4 4 3 4 2 2 2 6 2 5 9 10 12 12 11 12 12 12 12 11 10 9 7 7 6 5 4 5 4 3 2 2 1 1 1 1 1
6 5 4 6 5 4 4 5 5 5 5 2 2 3 5 5 8 9 10 11 12 12 11 11 11 9 8 9 8 8 7 6 5 5 5 5 4 3 2 2 2 1 1 1
5 5 3 2 1 2 4 6 4 5 4 3 2 2 7 7 7 10 12 12 11 12 11 10 10 10 9 10 9 8 8 7 6 6 5 5 5 4 4 3 3 2 1 1
2 6 4 2 5 5 4 8 8 5 3 3 2 3 7 4 4 6 9 10 9 10 11 11 12 11 11 10 10 9 9 7 7 6 5 4 4 3 3 3 3 3 2 2
4 6 5 3 2 7 3 2 7 8 2 1 3 3 5 1 2 5 8 9 10 11 11 11 10 10 10 10 10 10 9 7 7 6 5 4 4 3 3 3 2 2 2 2
6 3 5 4 4 2 5 6 6 6 5 1 3 3 4 4 5 6 8 9 9 9 8 9 9 9 8 8 8 7 8 8 7 6 6 5 4 4 3 3 2 2 2 2
4 4 5 3 1 1 2 2 5 5 6 6 2 6 5 7 7 7 8 8 9 10 10 9 8 8 8 7 7 7 7 7 6 6 6 4 4 4 3 3 3 3 2 2
2 6 2 5 5 3 3 4 6 5 3 4 4 7 4 5 6 6 7 7 7 8 8 8 8 7 7 7 7 8 8 7 7 7 5 5 4 4 3 3 3 3 2 2
3 6 3 7 8 6 2 0 3 6 5 4 5 6 2 2 4 5 7 7 7 7 7 7 7 7 7 7 7 7 7 8 7 6 6 5 4 4 4 4 3 3 3 2
5 5 6 7 6 3 2 3 1 5 3 3 5 5 3 1 4 4 5 6 7 7 7 7 6 6 6 7 6 7 6 7 7 6 6 6 5 5 5 4 3 3 3 2
6 3 2 3 4 1 2 3 1 1 5 7 6 5 6 5 6 6 7 6 6 5 5 6 7 6 5 5 5 6 6 6 7 7 7 7 6 5 4 4 3 3 3 3
5 3 2 3 3 2 3 4 1 1 2 4 4 3 4 2 4 5 6 7 6 5 5 5 6 6 6 6 6 5 5 5 6 7 7 6 5 5 5 4 3 3 3 2
2 3 3 2 4 3 3 2 1 1 2 5 5 6 4 5 5 6 6 6 6 5 4 5 5 6 6 6 6 6 5 5 5 6 6 5 6 5 5 5 3 4 3 3
4 3 2 0 3 3 7 2 2 3 1 1 4 5 6 7 5 4 5 7 6 4 4 3 3 3 3 3 3 4 3 4 4 4 5 5 5 5 4 4 4 4 3 3
6 6 3 2 1 4 5 3 0 2 1 1 4 5 5 7 7 5 2 5 5 4 4 3 3 3 3 3 3 4 3 2 3 4 4 5 6 5 5 5 4 4 3 3
4 5 5 3 2 5 6 5 2 6 1 3 3 5 4 5 4 1 1 4 5 4 4 3 3 3 3 3 3 4 3 2 3 4 5 5 5 5 5 5 4 3 3 3
2 2 3 3 3 5 6 5 2 3 5 2 2 4 3 3 5 4 3 4 4 5 4 3 4 3 2 2 4 4 3 3 4 3 3 4 5 5 5 4 3 3 3 3
4 4 4 4 3 6 5 2 2 5 3 2 4 3 4 5 5 5 4 3 4 4 4 4 3 2 1 2 4 3 2 2 1 2 2 3 3 4 4 3 3 3 4 3
3 5 5 6 6 5 2 2 3 4 3 2 3 3 5 6 4 4 3 2 2 3 3 2 3 2 2 2 3 2 2 1 0 1 1 2 2 3 3 4 4 3 3 3
3 1 3 1 2 2 0 1 2 3 4 3 4 4 5 5 5 3 3 2 1 1 2 2 3 3 1 1 1 1 1 1 1 0 1 1 2 2 2 3 3 3 4 3
3 1 2 0 2 3 4 2 2 2 3 3 4 4 4 5 4 3 2 2 1 1 1 2 3 2 1 0 0 0 0 1 1 0 1 1 2 3 3 2 3 3 4 5
2 2 3 4 4 2 3 2 1 3 3 3 4 4 3 4 4 3 2 2 1 1 1 1 2 1 1 0 1 1 0 1 1 1 2 1 1 2 2 2 0 1 2 3
Wind_Direction
338 68 237 231 200 184 176 170 234 237 192 140 173 176 178 176 169 170 173 173 172 177 176 167 163 161 156 155 151 150 149 160 147 130 132 132 155 169 172 196 181 175 165 148
8 274 244 231 202 153 125 112 235 332 94 128 161 191 180 177 183 181 178 180 179 173 170 172 167 166 164 165 165 162 163 167 170 169 168 170 167 191 199 207 177 182 177 174
211 246 251 221 205 167 214 188 195 191 60 68 113 345 213 201 196 187 179 177 180 179 176 174 170 172 168 170 172 171 173 173 177 170 145 117 78 49 44 52 216 221 192 179
240 245 224 202 214 183 226 213 187 172 129 224 132 204 270 208 200 194 185 178 183 183 176 173 173 174 176 178 173 167 169 173 178 165 154 157 159 175 203 201 205 228 190 185
244 228 206 203 222 201 211 188 163 160 122 75 37 107 283 206 197 202 188 182 183 182 177 179 179 179 178 176 172 169 166 175 180 173 172 168 174 190 195 184 183 205 227 218
243 247 216 213 228 193 156 76 56 59 77 59 234 142 269 227 206 197 189 182 180 179 178 180 181 174 174 172 171 170 168 178 180 178 177 174 181 182 176 188 191 212 232 249
302 295 265 179 90 334 85 91 47 14 22 263 247 153 246 239 206 190 182 182 179 177 176 174 172 171 174 174 176 174 174 183 184 181 185 186 188 188 191 196 191 191 202 226
220 279 261 216 174 189 198 139 151 171 196 264 329 228 258 243 207 180 170 174 171 174 175 176 178 175 177 178 177 175 179 184 185 183 188 188 187 188 194 192 186 192 202 214
183 250 268 243 189 156 159 159 160 132 135 125 278 283 310 330 161 162 161 165 176 179 176 177 177 175 175 178 181 180 178 181 184 185 183 186 186 187 191 191 189 194 206 207
164 237 286 295 29 14 151 151 96 109 138 207 288 261 233 225 196 178 174 176 180 175 171 173 172 172 172 175 175 171 174 180 182 185 191 194 195 192 185 179 192 200 212 209
139 158 301 353 121 236 29 78 106 119 147 150 203 262 223 197 191 182 180 174 172 172 167 164 166 170 169 167 169 172 179 179 181 188 192 193 189 185 182 191 206 208 209 196
120 125 235 267 261 201 167 172 144 143 200 157 160 257 263 186 179 163 169 163 157 156 156 156 159 159 159 164 171 179 182 182 189 190 185 190 186 177 184 200 211 205 203 201
105 100 63 338 340 357 33 116 132 129 125 147 161 253 306 100 120 132 149 155 150 141 143 149 154 157 163 172 177 182 187 187 185 178 179 184 186 187 199 206 208 204 202 202
103 101 150 190 223 257 309 314 94 117 138 185 205 226 292 103 134 136 140 151 148 143 145 148 155 168 170 174 180 181 188 188 180 175 178 184 193 195 200 204 204 204 197 189
79 104 174 226 252 281 300 295 325 132 176 176 205 201 225 200 174 156 147 140 127 130 142 154 163 168 169 173 181 181 185 185 181 178 187 195 198 194 191 196 202 201 195 196
56 83 48 345 332 348 336 316 282 241 144 158 156 215 225 165 121 123 133 135 135 146 152 161 166 170 173 176 183 186 186 184 175 181 195 196 190 190 194 200 199 191 193 191
57 79 69 299 314 13 300 280 180 200 193 162 185 209 161 114 121 137 136 132 141 153 150 159 171 177 183 187 183 182 187 173 169 185 192 190 189 192 199 198 190 194 195 186
130 102 117 73 30 232 247 258 120 108 39 143 154 157 150 146 141 130 132 133 137 147 150 158 161 170 178 173 163 164 145 151 166 180 186 184 184 190 190 187 193 196 187 188
144 135 122 117 186 269 293 312 328 113 6 343 136 134 134 125 86 46 66 135 148 151 147 152 149 152 147 145 148 132 123 136 161 179 187 188 185 187 189 195 201 194 181 190
99 116 126 140 167 226 250 287 294 100 43 309 117 139 148 120 111 211 144 110 111 104 102 105 105 109 123 144 140 131 135 151 196 198 196 189 182 183 190 198 197 186 181 197
75 77 141 169 206 256 268 295 25 118 220 247 114 133 132 136 173 169 122 93 101 102 96 95 93 95 126 146 131 133 141 193 225 210 192 190 188 191 193 191 179 170 178 183
167 163 181 155 179 246 288 26 123 202 201 119 97 101 115 119 113 109 104 100 95 93 88 93 92 84 86 115 127 134 175 221 227 192 176 194 199 196 184 170 175 174 173 179
181 187 177 180 205 233 247 166 180 155 119 102 102 109 119 118 118 119 117 119 122 116 110 109 109 89 58 75 114 148 225 199 160 140 187 205 203 195 180 177 184 184 185 191
302 42 106 64 283 269 317 135 110 118 127 124 125 128 125 130 137 140 139 141 140 139 125 113 101 87 47 32 87 180 222 154 122 132 244 216 200 202 192 184 188 191 198 205
273 21 63 39 287 9 17 34 83 83 86 89 103 118 132 128 134 138 140 148 169 169 127 116 122 122 133 72 32 293 270 120 130 221 252 235 219 203 198 200 204 202 208 206
256 172 163 226 237 183 251 280 108 98 91 97 101 94 113 131 144 141 150 158 155 157 143 134 136 145 176 54 336 322 304 145 162 222 262 242 234 222 199 190 259 330 222 227